User: anonymous   Login
Location: Unspecified
(0.0000°N, 0.0000°E)
Time: 06:21:06
(UTC+00:00)
Language:

PROBA 2 - Orbit

View from above orbital plane
View from above orbital plane
View from above satellite
View from above satellite

Ground track
Ground track

The orbit data is extracted from the following two-line orbital elements,

1 36037U 09059B   15024.54245479  .00000207  00000-0  61253-4 0  6249
2 36037 098.2779 219.4981 0014167 145.4161 275.1994 14.52762903277134
Epoch (UTC): 24 January 2015 13:01:08
Eccentricity: 0.0014167
inclination: 98.2779°
perigee height: 706 km
apogee height: 726 km
right ascension of ascending node: 219.4981°
argument of perigee: 145.4161°
revolutions per day: 14.52762903
mean anomaly at epoch: 275.1994°
orbit number at epoch: 27713

The dashed part of the orbit path shows where the satellite is in the earth's shadow,  

DLR